Tracking 27086 objects as of 22-Mar-2023
HD Live streaming from Space Station
objects crossing your sky now

FENGYUN 1C DEB

Track FENGYUN 1C DEB now!
10-day predictions


NORAD ID: 31660
Int'l Code: 1999-025CBS
Perigee: 747.3 km
Apogee: 905.2 km
Inclination: 98.5 °
Period: 101.3 minutes
Semi major axis: 7197 km
RCS: 0.0107 m2 (small)
Launch date: May 10, 1999
Source: People's Republic of China (PRC)
Launch site: Taiyaun Space Center, China (TSC)

Note: This is SATELLITE DEBRIS
Your satellite tracking list
Your tracking list is empty




NASA's NSSDC Master Catalog

Two Line Element Set (TLE):
1 31660U 99025CBS 23080.79479753  .00001706  00000-0  74673-3 0  9999
2 31660  98.5281 101.9873 0109690 210.3110 149.1694 14.21837143524989
Source of the keplerian elements: AFSPC